Location: Hoover
(45.1124°N, 103.2678°W)
Time: 04:10:18
(UTC+00:00)

N. Korean satellite - Pass Details

Date: 28 November 2020
Orbit: 453 x 502 km, 97.2° (Epoch: 16 January)

Event Time Altitude Azimuth Distance (km) Brightness Sun altitude
Rises 11:45:36 0° 23° (NNE) 2,553 10.4 -24.6°
Reaches altitude 10° 11:47:54 10° 37° (NE) 1,677 9.6 -24.2°
Maximum altitude 11:50:59 26° 96° (E) 987 8.8 -23.7°
Drops below altitude 10° 11:54:06 10° 155° (SSE) 1,686 9.7 -23.1°
Sets 11:56:25 0° 168° (SSE) 2,570 10.5 -22.7°
